QPF
0.00 0.00 0.00 0.00 0.05 0.00 0.00 0.00 0.00 0.01 0.00 0.00 0.00 0.00 0.00 0.03 0.16 0.15 0.19 0.10 0.01 0.00 0.00 0.00 0.02 0.03 0.03 0.05 0.05 0.04 0.02 0.00 0.00 0.00 0.00 0.00 0.00 0.00 0.00 0.00 0.00 0.02 0.01 0.00 0.00 0.00 0.00 0.00 0.01
0.00 0.00 0.00 0.01 0.00 0.00 0.00 0.00 0.00 0.00 0.00 0.00 0.00 0.00 0.00 0.00 0.00 0.11 0.20 0.17 0.01 0.00 0.03 0.00 0.04 0.02 0.00 0.02 0.01 0.00 0.00 0.00 0.00 0.00 0.01 0.00 0.00 0.00 0.00 0.01 0.01 0.01 0.01 0.00 0.00 0.00 0.00 0.00 0.02
0.00 0.00 0.02 0.00 0.00 0.00 0.00 0.00 0.00 0.00 0.00 0.00 0.00 0.00 0.00 0.01 0.01 0.15 0.07 0.04 0.00 0.02 0.08 0.02 0.02 0.01 0.00 0.00 0.00 0.00 0.00 0.00 0.00 0.00 0.01 0.00 0.01 0.05 0.02 0.01 0.00 0.02 0.00 0.04 0.03 0.03 0.01 0.00 0.00
0.00 0.00 0.00 0.00 0.00 0.00 0.00 0.00 0.00 0.00 0.00 0.00 0.00 0.00 0.00 0.00 0.00 0.03 0.01 0.02 0.03 0.03 0.01 0.00 0.00 0.00 0.00 0.00 0.00 0.00 0.00 0.00 0.00 0.00 0.00 0.00 0.03 0.08 0.02 0.01 0.01 0.01 0.00 0.02 0.02 0.03 0.00 0.00 0.00
0.00 0.00 0.00 0.00 0.00 0.00 0.00 0.00 0.00 0.00 0.00 0.00 0.00 0.00 0.00 0.00 0.00 0.00 0.01 0.02 0.01 0.02 0.00 0.00 0.01 0.00 0.00 0.00 0.00 0.00 0.00 0.00 0.00 0.01 0.05 0.02 0.09 0.14 0.04 0.01 0.00 0.01 0.01 0.02 0.01 0.02 0.00 0.00 0.00
0.00 0.00 0.00 0.00 0.00 0.00 0.00 0.00 0.00 0.00 0.00 0.00 0.00 0.00 0.00 0.00 0.00 0.00 0.01 0.03 0.02 0.01 0.00 0.00 0.01 0.00 0.01 0.02 0.00 0.00 0.00 0.00 0.00 0.01 0.08 0.09 0.20 0.32 0.14 0.04 0.05 0.02 0.02 0.03 0.04 0.02 0.01 0.00 0.00
0.00 0.00 0.00 0.00 0.00 0.00 0.00 0.00 0.00 0.00 0.00 0.00 0.00 0.00 0.00 0.00 0.01 0.02 0.01 0.02 0.02 0.01 0.00 0.00 0.00 0.00 0.00 0.00 0.00 0.00 0.00 0.00 0.00 0.00 0.05 0.11 0.15 0.15 0.16 0.15 0.19 0.11 0.05 0.05 0.04 0.01 0.00 0.00 0.00
0.00 0.00 0.00 0.00 0.00 0.00 0.00 0.00 0.00 0.00 0.00 0.00 0.00 0.00 0.00 0.00 0.01 0.01 0.01 0.01 0.00 0.01 0.00 0.00 0.00 0.00 0.00 0.00 0.00 0.00 0.00 0.00 0.00 0.02 0.04 0.06 0.02 0.01 0.04 0.11 0.16 0.12 0.09 0.04 0.00 0.00 0.00 0.00 0.00
0.00 0.00 0.00 0.00 0.00 0.00 0.00 0.00 0.00 0.00 0.00 0.00 0.00 0.00 0.00 0.00 0.00 0.00 0.00 0.00 0.00 0.00 0.00 0.00 0.00 0.00 0.00 0.00 0.01 0.00 0.00 0.00 0.01 0.02 0.04 0.01 0.00 0.00 0.01 0.01 0.06 0.07 0.06 0.03 0.00 0.00 0.00 0.00 0.00
0.00 0.00 0.00 0.00 0.00 0.00 0.00 0.00 0.00 0.00 0.00 0.00 0.00 0.00 0.00 0.00 0.00 0.00 0.00 0.00 0.00 0.00 0.00 0.00 0.00 0.00 0.00 0.00 0.00 0.00 0.00 0.00 0.02 0.07 0.06 0.01 0.00 0.00 0.02 0.05 0.01 0.00 0.03 0.08 0.05 0.00 0.00 0.00 0.00
0.00 0.00 0.00 0.00 0.00 0.00 0.00 0.00 0.00 0.00 0.00 0.00 0.00 0.00 0.00 0.00 0.00 0.00 0.00 0.00 0.00 0.00 0.00 0.00 0.00 0.00 0.00 0.00 0.00 0.00 0.00 0.00 0.05 0.04 0.01 0.00 0.00 0.00 0.00 0.01 0.00 0.02 0.01 0.00 0.04 0.03 0.00 0.00 0.00
0.00 0.00 0.00 0.00 0.00 0.00 0.00 0.00 0.00 0.00 0.00 0.00 0.00 0.00 0.00 0.00 0.00 0.00 0.00 0.00 0.00 0.00 0.00 0.00 0.00 0.00 0.00 0.00 0.03 0.00 0.00 0.00 0.00 0.01 0.00 0.01 0.00 0.00 0.00 0.00 0.00 0.01 0.02 0.01 0.04 0.04 0.01 0.00 0.00
0.00 0.00 0.00 0.00 0.00 0.00 0.00 0.00 0.00 0.00 0.00 0.00 0.00 0.00 0.00 0.00 0.00 0.00 0.00 0.00 0.00 0.00 0.00 0.00 0.00 0.00 0.06 0.05 0.04 0.02 0.00 0.00 0.00 0.01 0.05 0.00 0.00 0.00 0.00 0.00 0.00 0.00 0.00 0.00 0.00 0.00 0.00 0.00 0.00
0.00 0.00 0.00 0.00 0.00 0.00 0.00 0.00 0.00 0.00 0.00 0.00 0.00 0.00 0.00 0.00 0.00 0.00 0.00 0.00 0.00 0.00 0.00 0.00 0.00 0.00 0.02 0.00 0.01 0.04 0.00 0.00 0.01 0.04 0.05 0.05 0.02 0.03 0.01 0.02 0.04 0.01 0.00 0.00 0.00 0.00 0.00 0.01 0.00
0.00 0.00 0.00 0.00 0.00 0.00 0.00 0.00 0.00 0.00 0.00 0.00 0.00 0.00 0.00 0.00 0.00 0.00 0.00 0.00 0.00 0.00 0.00 0.00 0.00 0.00 0.00 0.00 0.00 0.02 0.06 0.06 0.08 0.07 0.02 0.01 0.03 0.03 0.04 0.04 0.09 0.02 0.01 0.00 0.00 0.01 0.00 0.00 0.00
0.00 0.00 0.00 0.00 0.00 0.00 0.00 0.00 0.00 0.00 0.00 0.00 0.00 0.00 0.00 0.00 0.00 0.00 0.00 0.00 0.00 0.00 0.00 0.00 0.00 0.00 0.00 0.00 0.02 0.11 0.13 0.09 0.02 0.01 0.01 0.05 0.10 0.08 0.05 0.05 0.07 0.07 0.06 0.00 0.00 0.00 0.00 0.00 0.00
0.00 0.00 0.00 0.00 0.00 0.00 0.00 0.00 0.00 0.00 0.00 0.00 0.00 0.00 0.00 0.00 0.00 0.00 0.00 0.00 0.00 0.00 0.00 0.00 0.00 0.01 0.00 0.00 0.12 0.24 0.10 0.06 0.00 0.00 0.00 0.00 0.02 0.02 0.01 0.05 0.10 0.08 0.13 0.09 0.05 0.05 0.04 0.03 0.02
0.00 0.00 0.00 0.00 0.00 0.00 0.00 0.00 0.00 0.00 0.00 0.00 0.00 0.00 0.00 0.00 0.00 0.00 0.00 0.00 0.00 0.00 0.00 0.00 0.00 0.00 0.00 0.05 0.16 0.09 0.04 0.05 0.00 0.00 0.00 0.00 0.00 0.00 0.00 0.00 0.02 0.06 0.02 0.07 0.07 0.11 0.13 0.19 0.07
0.00 0.00 0.00 0.00 0.00 0.00 0.00 0.00 0.00 0.00 0.00 0.00 0.00 0.00 0.00 0.00 0.00 0.00 0.00 0.00 0.00 0.00 0.00 0.00 0.00 0.00 0.00 0.00 0.04 0.16 0.16 0.03 0.04 0.00 0.00 0.00 0.00 0.00 0.00 0.00 0.00 0.00 0.01 0.05 0.10 0.07 0.13 0.19 0.19
0.00 0.00 0.00 0.00 0.00 0.00 0.00 0.00 0.00 0.00 0.00 0.00 0.00 0.00 0.00 0.00 0.00 0.00 0.00 0.00 0.00 0.00 0.00 0.00 0.00 0.00 0.00 0.00 0.00 0.00 0.01 0.01 0.01 0.00 0.00 0.01 0.00 0.00 0.02 0.01 0.03 0.01 0.02 0.00 0.00 0.01 0.10 0.13 0.16
0.00 0.00 0.00 0.00 0.00 0.00 0.00 0.00 0.00 0.00 0.00 0.00 0.00 0.00 0.00 0.00 0.00 0.00 0.00 0.00 0.00 0.00 0.00 0.00 0.00 0.00 0.00 0.00 0.00 0.00 0.00 0.01 0.00 0.00 0.02 0.06 0.02 0.00 0.00 0.00 0.03 0.02 0.01 0.00 0.00 0.00 0.00 0.02 0.11
0.00 0.00 0.00 0.00 0.00 0.00 0.00 0.00 0.01 0.02 0.00 0.00 0.00 0.00 0.00 0.00 0.00 0.00 0.00 0.00 0.00 0.00 0.00 0.00 0.00 0.00 0.00 0.00 0.00 0.01 0.05 0.06 0.04 0.00 0.00 0.03 0.01 0.01 0.00 0.00 0.00 0.00 0.00 0.00 0.00 0.00 0.01 0.02 0.03
0.00 0.00 0.00 0.00 0.00 0.00 0.00 0.00 0.00 0.00 0.00 0.00 0.00 0.00 0.00 0.00 0.00 0.00 0.00 0.00 0.00 0.00 0.00 0.00 0.00 0.00 0.00 0.00 0.00 0.03 0.01 0.03 0.06 0.00 0.00 0.01 0.02 0.01 0.02 0.04 0.06 0.03 0.01 0.00 0.00 0.00 0.01 0.01 0.01
0.00 0.00 0.00 0.00 0.00 0.00 0.00 0.00 0.00 0.00 0.00 0.00 0.00 0.00 0.00 0.00 0.00 0.00 0.00 0.00 0.00 0.00 0.00 0.00 0.00 0.00 0.01 0.00 0.02 0.04 0.00 0.01 0.05 0.01 0.01 0.00 0.02 0.07 0.06 0.01 0.03 0.09 0.06 0.03 0.03 0.02 0.00 0.00 0.01
0.00 0.00 0.00 0.00 0.00 0.00 0.00 0.00 0.00 0.00 0.00 0.00 0.00 0.00 0.00 0.00 0.00 0.00 0.00 0.00 0.00 0.00 0.00 0.00 0.00 0.00 0.00 0.00 0.00 0.00 0.00 0.01 0.01 0.00 0.00 0.00 0.00 0.00 0.00 0.00 0.00 0.02 0.01 0.03 0.06 0.04 0.05 0.04 0.02
0.00 0.00 0.00 0.00 0.00 0.00 0.00 0.00 0.00 0.00 0.00 0.00 0.00 0.00 0.00 0.00 0.00 0.00 0.00 0.00 0.00 0.00 0.00 0.00 0.00 0.00 0.00 0.00 0.00 0.00 0.00 0.00 0.00 0.00 0.00 0.00 0.00 0.00 0.00 0.00 0.00 0.00 0.00 0.00 0.01 0.04 0.07 0.07 0.05
0.00 0.00 0.00 0.00 0.00 0.00 0.00 0.00 0.00 0.00 0.00 0.00 0.00 0.00 0.00 0.00 0.00 0.00 0.00 0.00 0.00 0.00 0.00 0.00 0.00 0.00 0.00 0.00 0.00 0.00 0.00 0.00 0.00 0.00 0.00 0.00 0.00 0.00 0.00 0.00 0.00 0.00 0.00 0.00 0.00 0.02 0.03 0.01 0.04
0.00 0.00 0.00 0.00 0.00 0.00 0.00 0.00 0.00 0.00 0.00 0.00 0.00 0.00 0.00 0.00 0.00 0.00 0.00 0.00 0.00 0.00 0.00 0.00 0.00 0.00 0.00 0.00 0.00 0.00 0.00 0.00 0.01 0.00 0.00 0.00 0.00 0.00 0.00 0.00 0.00 0.00 0.00 0.00 0.00 0.00 0.00 0.00 0.00
0.00 0.00 0.00 0.00 0.00 0.00 0.00 0.00 0.00 0.00 0.00 0.00 0.00 0.00 0.00 0.00 0.00 0.00 0.00 0.00 0.00 0.00 0.00 0.00 0.00 0.00 0.00 0.00 0.00 0.00 0.00 0.00 0.00 0.00 0.00 0.00 0.00 0.00 0.00 0.00 0.00 0.00 0.00 0.00 0.00 0.00 0.00 0.00 0.00
0.00 0.00 0.00 0.00 0.00 0.00 0.00 0.00 0.00 0.00 0.00 0.00 0.00 0.00 0.00 0.00 0.00 0.00 0.00 0.00 0.00 0.00 0.00 0.00 0.00 0.00 0.00 0.00 0.00 0.00 0.00 0.00 0.00 0.00 0.00 0.00 0.00 0.00 0.00 0.00 0.00 0.00 0.00 0.00 0.00 0.00 0.00 0.00 0.00
MSLP
1005.46 1005.02 1004.20 1002.98 1002.31 1000.06 1000.57 1000.88 1000.61 1001.26 1001.41 1002.18 1002.60 1002.90 1004.34 1005.64 1006.58 1010.68 1012.87 1013.20 1013.00 1013.33 1013.29 1013.28 1013.34 1013.39 1013.47 1013.66 1013.75 1013.93 1013.90 1014.04 1014.16 1014.20 1014.28 1014.42 1014.43 1014.59 1014.58 1014.68 1014.81 1014.96 1014.95 1014.95 1015.09 1015.22 1015.36 1015.52 1015.59
1003.33 1003.45 1003.03 1001.20 1000.60 999.89 1000.63 1000.65 1000.69 1001.20 1001.96 1002.59 1002.96 1003.07 1004.33 1006.71 1008.02 1011.01 1013.05 1013.13 1013.04 1012.96 1013.12 1013.08 1013.45 1013.50 1013.71 1013.80 1013.91 1014.10 1014.03 1014.27 1014.34 1014.44 1014.58 1014.54 1014.68 1014.68 1014.77 1014.85 1014.96 1015.13 1015.14 1015.26 1015.40 1015.54 1015.67 1015.82 1015.95
1003.79 1002.78 1001.49 999.26 999.57 1000.08 1000.92 1001.54 1001.90 1002.25 1002.18 1002.55 1003.19 1003.97 1004.88 1007.53 1008.69 1010.51 1011.51 1012.69 1012.52 1012.37 1012.64 1012.87 1013.49 1013.62 1013.80 1013.97 1014.16 1014.20 1014.33 1014.47 1014.51 1014.61 1014.70 1014.77 1014.81 1014.92 1014.99 1014.99 1015.09 1015.31 1015.34 1015.57 1015.66 1015.81 1015.89 1016.12 1016.18
1001.91 1001.42 1000.10 999.00 999.81 1000.59 1001.01 1001.30 1001.63 1002.05 1002.65 1003.08 1003.52 1005.21 1006.78 1007.42 1008.31 1009.99 1011.20 1011.69 1012.04 1012.15 1012.09 1013.28 1013.57 1013.75 1013.89 1014.04 1014.25 1014.30 1014.48 1014.65 1014.69 1014.75 1014.86 1014.99 1015.06 1015.13 1015.16 1015.22 1015.36 1015.50 1015.62 1015.80 1015.97 1016.12 1016.25 1016.42 1016.48
1001.18 999.28 998.62 999.56 1000.32 1001.01 1001.32 1001.24 1001.23 1001.96 1002.70 1003.11 1003.47 1005.49 1007.29 1007.87 1008.31 1009.90 1010.92 1011.52 1011.25 1011.97 1011.98 1013.08 1013.67 1013.81 1014.02 1014.24 1014.33 1014.40 1014.57 1014.69 1014.72 1014.80 1015.13 1015.18 1015.18 1015.26 1015.54 1015.56 1015.67 1015.77 1015.85 1015.95 1016.04 1016.16 1016.45 1016.61 1016.68
999.23 997.54 998.19 999.26 1000.34 1001.09 1001.51 1001.29 1001.78 1002.28 1003.03 1003.75 1004.54 1005.75 1007.49 1007.95 1008.57 1009.77 1010.38 1011.21 1011.10 1011.40 1011.37 1012.92 1013.90 1013.96 1014.12 1014.29 1014.46 1014.62 1014.77 1014.82 1014.92 1014.99 1015.40 1015.40 1015.37 1015.44 1015.82 1015.86 1015.99 1015.98 1016.01 1016.20 1016.24 1016.44 1016.57 1016.75 1016.81
997.87 997.78 998.21 999.06 1000.57 1001.43 1001.84 1001.58 1001.94 1002.35 1002.62 1003.30 1004.29 1005.59 1007.27 1008.27 1008.54 1009.39 1010.37 1011.34 1011.45 1010.96 1011.43 1012.37 1013.15 1013.88 1014.25 1014.45 1014.59 1014.80 1014.89 1014.96 1015.07 1015.17 1015.32 1015.56 1015.54 1015.72 1015.91 1016.17 1016.22 1016.25 1016.30 1016.39 1016.40 1016.48 1016.64 1016.82 1016.85
998.01 997.15 997.97 999.19 1000.37 1001.64 1002.22 1002.53 1002.32 1002.75 1003.44 1003.70 1004.15 1005.53 1006.92 1008.49 1009.02 1010.06 1010.67 1011.35 1011.58 1011.41 1011.28 1011.68 1012.52 1013.25 1013.70 1014.20 1014.75 1014.90 1014.95 1015.04 1015.21 1015.30 1015.32 1015.43 1015.69 1015.87 1016.02 1016.27 1016.24 1016.32 1016.38 1016.33 1016.38 1016.54 1016.66 1016.74 1016.79
997.86 997.35 998.34 999.38 1000.19 1001.61 1001.99 1002.29 1003.29 1003.66 1003.81 1004.13 1004.40 1005.20 1006.34 1007.81 1008.43 1009.66 1010.74 1011.09 1011.68 1010.52 1010.38 1010.94 1011.89 1012.48 1012.50 1012.84 1014.15 1014.64 1014.83 1015.03 1015.14 1015.13 1015.30 1015.57 1015.57 1015.78 1016.19 1016.23 1016.21 1016.18 1016.12 1016.31 1016.32 1016.37 1016.49 1016.60 1016.65
996.86 998.15 999.36 999.87 1000.45 1001.31 1001.91 1002.47 1003.23 1003.40 1003.90 1004.38 1004.46 1005.54 1006.98 1007.87 1008.25 1008.60 1009.26 1009.83 1010.35 1010.22 1010.60 1010.75 1011.30 1011.90 1012.26 1012.44 1013.46 1013.63 1014.01 1013.87 1014.10 1015.09 1015.14 1015.11 1015.06 1014.95 1015.45 1016.01 1015.87 1015.94 1015.86 1015.94 1015.92 1016.05 1016.19 1016.35 1015.46
997.78 998.58 999.57 1000.64 1001.05 1001.47 1001.91 1002.37 1002.63 1002.25 1002.79 1003.94 1005.03 1006.15 1007.06 1007.72 1008.17 1008.20 1008.62 1009.20 1009.67 1010.44 1010.49 1010.80 1011.55 1011.74 1012.29 1012.25 1012.48 1013.06 1013.05 1013.34 1014.25 1014.80 1014.97 1014.73 1014.39 1014.59 1014.63 1015.56 1015.55 1015.71 1015.79 1015.08 1015.74 1016.21 1015.57 1014.87 1014.72
998.18 999.24 999.83 1000.67 1001.12 1001.48 1001.85 1002.22 1002.74 1002.95 1003.49 1003.91 1005.22 1006.39 1006.88 1007.37 1007.45 1007.77 1008.25 1008.69 1009.37 1010.22 1010.55 1010.80 1011.72 1012.23 1012.45 1012.56 1012.93 1013.33 1012.75 1013.38 1014.07 1014.14 1014.66 1014.46 1014.93 1014.72 1014.58 1014.76 1015.53 1015.44 1015.71 1015.40 1015.84 1016.30 1015.61 1014.54 1015.14
998.11 999.21 1000.04 1000.74 1001.07 1001.45 1001.86 1002.44 1003.10 1003.66 1004.12 1004.53 1005.58 1006.45 1006.82 1006.94 1007.25 1007.63 1008.24 1008.84 1009.51 1010.27 1010.61 1010.80 1011.65 1012.63 1013.29 1013.65 1013.96 1013.61 1013.37 1013.27 1013.58 1013.81 1014.56 1013.85 1014.21 1014.74 1014.55 1014.83 1015.08 1015.28 1015.23 1014.75 1015.01 1014.79 1014.63 1014.33 1014.48
998.63 999.10 999.66 1000.22 1000.85 1001.30 1001.50 1002.20 1002.51 1004.01 1004.30 1004.92 1005.75 1006.17 1006.52 1006.57 1006.95 1007.50 1007.89 1008.49 1009.21 1010.04 1010.52 1011.00 1012.01 1013.04 1013.44 1013.94 1014.07 1014.08 1013.80 1013.37 1013.83 1014.25 1014.26 1014.42 1014.44 1014.44 1014.42 1014.66 1014.86 1014.84 1014.87 1015.00 1014.89 1014.79 1015.02 1015.02 1014.74
998.45 998.47 999.07 999.65 1000.29 1000.28 1000.66 1001.12 1002.51 1003.80 1004.32 1004.91 1005.45 1005.78 1006.01 1006.20 1006.55 1006.97 1007.39 1007.97 1008.75 1009.51 1009.97 1010.73 1011.55 1012.41 1013.32 1013.57 1013.79 1013.74 1013.77 1013.75 1013.57 1013.70 1014.36 1014.44 1014.41 1014.66 1014.66 1014.83 1014.93 1014.64 1015.07 1015.32 1015.45 1014.78 1014.67 1015.22 1015.48
997.77 997.75 998.00 999.00 999.88 1000.11 1000.25 1000.94 1002.57 1003.56 1004.00 1004.39 1004.94 1005.37 1005.85 1006.10 1006.40 1006.94 1007.39 1007.82 1008.50 1008.65 1009.62 1010.43 1010.90 1011.40 1012.60 1012.89 1013.19 1013.47 1013.65 1013.42 1013.38 1013.34 1013.66 1014.13 1014.38 1014.43 1014.36 1014.55 1014.57 1014.38 1014.77 1014.87 1015.18 1015.26 1015.31 1015.39 1015.65
996.89 999.55 997.31 998.01 999.28 999.60 1000.20 1000.37 1002.00 1002.86 1003.21 1003.67 1004.22 1004.76 1005.38 1005.89 1006.22 1006.88 1007.26 1007.75 1007.96 1008.73 1009.54 1010.09 1010.75 1011.35 1012.01 1012.58 1013.00 1013.50 1013.51 1013.51 1013.77 1013.94 1014.11 1014.08 1014.07 1014.08 1014.15 1013.82 1014.06 1014.01 1014.26 1014.38 1014.53 1014.64 1014.91 1014.88 1015.14
996.21 996.02 996.97 997.54 998.31 998.95 999.41 1000.05 1001.22 1002.15 1002.38 1002.78 1003.34 1004.06 1004.79 1005.23 1005.72 1006.24 1006.82 1007.49 1007.81 1008.37 1009.34 1010.13 1010.46 1011.26 1011.75 1012.30 1013.15 1013.35 1013.34 1013.29 1013.37 1013.97 1014.26 1014.23 1014.44 1014.41 1014.25 1014.23 1013.80 1013.74 1013.66 1013.73 1013.92 1014.19 1014.51 1014.40 1014.20
996.32 996.47 996.95 997.36 998.14 998.32 998.18 998.69 999.65 1001.24 1001.64 1001.89 1002.38 1003.13 1003.81 1004.11 1004.75 1005.68 1006.32 1007.01 1007.66 1008.34 1009.11 1009.90 1010.52 1011.09 1011.77 1012.31 1012.50 1013.10 1012.91 1012.57 1012.94 1012.81 1013.40 1013.83 1014.02 1014.13 1014.15 1014.06 1014.14 1013.76 1013.63 1013.55 1013.61 1013.64 1013.62 1013.80 1013.90
996.89 996.67 996.63 997.09 997.71 997.99 997.43 998.21 998.32 999.74 1000.65 1000.92 1001.50 1002.05 1002.78 1003.39 1004.25 1005.30 1006.10 1006.69 1007.02 1007.90 1008.79 1009.62 1010.25 1011.04 1011.54 1011.36 1011.96 1012.27 1012.81 1012.86 1012.72 1012.39 1012.59 1012.84 1013.13 1013.00 1013.29 1013.77 1013.55 1013.06 1013.28 1013.46 1013.62 1013.25 1013.25 1013.25 1013.31
996.77 996.34 996.18 997.00 997.30 997.03 997.56 999.16 999.93 999.68 1000.14 1000.17 1000.68 1001.25 1001.88 1002.75 1003.56 1005.36 1006.56 1007.01 1007.20 1006.98 1008.23 1009.12 1010.02 1010.81 1011.19 1010.96 1011.68 1012.32 1012.49 1012.72 1012.87 1012.47 1012.33 1012.72 1012.89 1012.90 1012.66 1012.81 1012.94 1012.98 1013.06 1012.79 1013.12 1013.18 1013.29 1012.87 1012.46
996.15 995.96 996.68 997.26 997.05 997.02 998.01 998.04 1000.45 1001.35 999.64 999.57 999.78 1000.43 1001.13 1002.21 1003.47 1005.64 1006.87 1007.54 1007.54 1006.82 1007.89 1008.91 1009.69 1010.30 1010.70 1011.26 1011.34 1011.60 1011.33 1011.71 1012.18 1012.65 1012.53 1012.56 1012.56 1012.59 1012.72 1012.88 1012.77 1012.82 1012.89 1012.92 1013.05 1013.02 1013.21 1012.91 1012.05
996.28 996.58 997.25 997.38 997.28 996.69 995.95 996.92 997.62 997.08 997.69 998.27 999.04 999.47 1000.32 1001.69 1003.02 1004.34 1006.58 1007.67 1007.56 1007.97 1008.38 1009.00 1009.98 1010.71 1010.79 1011.00 1011.43 1011.79 1011.90 1012.09 1012.00 1012.12 1012.23 1012.32 1012.47 1012.21 1012.31 1012.30 1012.42 1012.53 1012.70 1012.73 1012.82 1012.76 1012.67 1012.21 1012.07
996.52 996.84 997.12 997.49 997.27 996.64 996.81 997.84 997.08 997.38 995.96 996.90 997.84 998.83 999.78 1000.90 1002.91 1004.22 1006.21 1007.54 1007.69 1008.00 1008.73 1009.55 1010.50 1011.62 1011.46 1011.63 1011.74 1013.20 1013.09 1012.28 1012.27 1011.73 1011.58 1011.45 1011.73 1012.01 1012.87 1013.04 1012.98 1012.64 1012.78 1012.70 1012.58 1012.51 1012.45 1012.26 1012.04
996.38 996.53 996.51 996.42 996.25 997.08 998.24 998.89 995.73 996.24 996.74 997.10 997.51 998.30 999.36 1000.39 1002.56 1004.33 1006.04 1007.37 1008.00 1008.53 1009.04 1009.96 1010.93 1011.81 1011.91 1012.57 1012.46 1013.02 1013.32 1013.12 1012.77 1012.01 1012.22 1012.48 1012.71 1012.92 1013.29 1013.56 1013.34 1013.09 1013.08 1012.96 1012.84 1012.58 1012.37 1012.25 1012.16
995.59 996.07 995.80 995.36 995.18 998.00 999.43 999.50 995.71 996.20 996.78 997.47 997.89 998.17 999.24 1000.22 1002.13 1004.12 1006.33 1007.09 1007.92 1008.76 1009.42 1010.19 1011.09 1011.86 1012.10 1012.33 1012.84 1013.20 1013.55 1013.05 1012.95 1013.01 1012.86 1012.94 1012.95 1013.03 1013.55 1013.71 1013.45 1013.40 1013.23 1013.19 1013.00 1012.50 1012.46 1012.32 1012.06
994.99 995.29 995.64 995.15 994.44 995.48 997.46 997.62 996.49 996.41 996.78 997.78 998.04 998.74 999.48 1000.58 1002.22 1004.30 1005.82 1007.15 1008.08 1009.20 1010.00 1010.54 1011.17 1011.75 1012.02 1012.27 1012.65 1013.10 1013.39 1013.36 1013.43 1013.51 1013.11 1013.25 1013.67 1013.53 1013.92 1014.13 1014.01 1013.85 1013.72 1013.60 1013.44 1012.58 1012.50 1012.56 1012.14
995.15 994.67 994.73 994.79 994.39 994.46 996.19 995.25 995.48 996.21 996.60 997.92 998.28 998.99 1000.07 1001.24 1002.64 1004.19 1005.54 1007.08 1008.06 1008.88 1010.13 1010.88 1011.55 1012.06 1012.15 1012.57 1012.89 1013.17 1013.59 1013.60 1013.83 1013.97 1014.14 1014.26 1014.24 1014.19 1014.26 1014.41 1014.25 1014.01 1013.71 1013.65 1013.49 1013.03 1012.63 1012.62 1012.31
994.99 994.83 994.64 994.12 993.86 993.85 993.96 994.82 997.22 1000.06 997.61 997.80 998.50 999.63 1000.77 1001.83 1003.05 1004.26 1005.63 1007.30 1008.06 1008.74 1010.25 1011.29 1011.92 1012.46 1012.51 1012.78 1013.27 1013.48 1013.63 1013.91 1014.02 1014.21 1014.48 1014.45 1014.58 1014.75 1014.78 1014.75 1014.41 1014.21 1014.04 1014.18 1014.09 1013.85 1013.02 1012.97 1012.69
994.15 994.06 994.43 993.74 993.74 993.14 993.20 994.69 995.83 996.47 995.90 997.33 998.30 999.95 1001.24 1002.34 1003.34 1004.61 1005.87 1007.48 1008.49 1009.19 1010.52 1011.20 1011.71 1012.11 1012.50 1013.24 1013.52 1013.81 1014.01 1014.23 1014.37 1014.58 1014.76 1014.89 1014.92 1014.96 1015.01 1015.00 1014.98 1015.19 1015.07 1015.09 1014.69 1014.33 1013.81 1013.60 1012.87
Thickness
5838 5840 5847 5839 5801 5833 5799 5801 5826 5806 5812 5825 5826 5816 5799 5797 5785 5745 5753 5751 5756 5756 5758 5758 5759 5758 5756 5756 5758 5758 5760 5757 5755 5754 5755 5754 5753 5752 5752 5753 5752 5751 5750 5750 5749 5747 5746 5745 5745
5862 5854 5849 5840 5816 5802 5795 5819 5811 5818 5821 5826 5822 5819 5803 5774 5788 5764 5749 5750 5757 5760 5762 5763 5762 5761 5759 5758 5757 5755 5760 5757 5756 5754 5753 5755 5753 5754 5753 5752 5752 5750 5749 5748 5746 5745 5743 5742 5742
5859 5862 5837 5847 5829 5798 5791 5809 5810 5817 5828 5821 5811 5817 5804 5774 5784 5771 5771 5762 5766 5768 5766 5766 5763 5762 5760 5758 5756 5757 5757 5756 5756 5755 5755 5754 5755 5754 5753 5752 5751 5749 5748 5746 5745 5743 5742 5740 5740
5867 5859 5860 5834 5811 5819 5814 5820 5824 5818 5821 5823 5817 5787 5795 5801 5790 5784 5779 5775 5772 5771 5772 5765 5763 5762 5761 5759 5758 5759 5757 5756 5756 5755 5755 5754 5754 5753 5753 5751 5750 5748 5746 5744 5743 5741 5740 5738 5738
5872 5871 5848 5821 5815 5822 5828 5834 5835 5817 5815 5815 5819 5787 5778 5795 5800 5789 5781 5777 5778 5774 5774 5766 5762 5761 5761 5759 5759 5760 5758 5757 5757 5757 5755 5754 5754 5753 5750 5750 5747 5746 5745 5744 5743 5741 5738 5736 5736
5860 5893 5842 5816 5818 5828 5832 5841 5831 5821 5817 5812 5802 5791 5780 5800 5795 5789 5788 5780 5783 5779 5779 5767 5760 5761 5760 5760 5760 5759 5758 5758 5757 5757 5754 5753 5752 5752 5749 5748 5745 5745 5744 5742 5741 5739 5737 5735 5734
5879 5869 5845 5839 5821 5818 5825 5846 5828 5822 5820 5813 5817 5787 5790 5790 5799 5796 5789 5781 5780 5784 5780 5772 5767 5762 5760 5760 5759 5758 5758 5757 5756 5756 5755 5751 5751 5749 5748 5744 5744 5743 5742 5741 5739 5738 5737 5735 5734
5881 5891 5857 5846 5824 5811 5832 5832 5839 5826 5813 5833 5827 5787 5781 5789 5798 5792 5788 5782 5781 5783 5784 5779 5773 5768 5765 5761 5758 5757 5758 5757 5756 5756 5754 5752 5750 5748 5747 5745 5744 5743 5743 5742 5741 5739 5737 5736 5735
5902 5868 5843 5840 5834 5823 5841 5828 5834 5836 5821 5822 5824 5814 5813 5808 5806 5791 5781 5781 5777 5789 5792 5787 5778 5774 5774 5772 5762 5760 5759 5758 5758 5757 5755 5753 5752 5751 5747 5746 5746 5745 5744 5743 5742 5741 5740 5738 5737
5897 5856 5842 5862 5857 5839 5841 5834 5827 5823 5818 5813 5819 5822 5815 5808 5802 5795 5790 5785 5783 5786 5786 5789 5784 5779 5776 5776 5769 5768 5766 5767 5765 5757 5756 5756 5757 5757 5753 5749 5749 5747 5747 5747 5746 5744 5742 5740 5746
5887 5854 5865 5857 5861 5857 5842 5836 5842 5835 5823 5823 5810 5811 5810 5806 5801 5800 5798 5794 5790 5787 5788 5788 5782 5780 5776 5777 5776 5772 5774 5771 5762 5757 5756 5759 5762 5760 5759 5752 5752 5750 5748 5753 5743 5736 5745 5751 5751
5866 5872 5870 5863 5864 5855 5843 5848 5836 5838 5833 5842 5829 5820 5814 5806 5807 5806 5802 5801 5796 5790 5789 5789 5782 5777 5774 5774 5772 5771 5774 5770 5764 5762 5759 5762 5758 5759 5758 5756 5751 5750 5751 5751 5743 5734 5745 5753 5747
5878 5873 5873 5869 5865 5860 5859 5842 5836 5832 5842 5843 5831 5821 5815 5814 5811 5811 5806 5802 5797 5789 5789 5790 5785 5775 5768 5765 5763 5766 5769 5770 5769 5768 5762 5767 5763 5759 5759 5756 5753 5751 5751 5755 5753 5754 5753 5754 5751
5885 5879 5876 5875 5866 5863 5852 5846 5849 5836 5845 5835 5827 5822 5821 5820 5817 5814 5811 5805 5800 5793 5789 5790 5781 5772 5769 5766 5766 5765 5768 5772 5769 5766 5765 5763 5762 5761 5759 5757 5754 5753 5752 5751 5752 5752 5750 5749 5748
5890 5873 5880 5876 5872 5865 5864 5842 5837 5846 5844 5832 5828 5827 5826 5825 5826 5820 5819 5812 5807 5801 5798 5791 5788 5782 5775 5773 5771 5771 5772 5771 5772 5770 5765 5763 5762 5759 5757 5755 5754 5754 5751 5748 5746 5750 5750 5745 5742
5879 5883 5852 5877 5874 5873 5865 5827 5846 5854 5844 5834 5832 5831 5826 5827 5828 5825 5823 5819 5814 5812 5802 5798 5796 5793 5784 5781 5778 5776 5774 5775 5775 5774 5771 5765 5760 5759 5758 5757 5757 5756 5751 5749 5747 5744 5741 5740 5738
5882 5781 5865 5869 5881 5873 5862 5845 5853 5860 5851 5841 5838 5836 5830 5826 5827 5825 5824 5820 5820 5814 5806 5802 5799 5794 5789 5785 5780 5775 5774 5774 5772 5770 5766 5763 5757 5758 5757 5760 5759 5758 5755 5754 5752 5749 5745 5744 5741
5848 5877 5873 5865 5878 5875 5862 5854 5858 5859 5856 5849 5846 5841 5834 5831 5830 5831 5826 5821 5821 5817 5811 5805 5803 5797 5794 5788 5780 5778 5777 5777 5774 5769 5764 5762 5754 5753 5753 5754 5757 5759 5760 5760 5757 5753 5749 5748 5749
5888 5880 5868 5878 5883 5873 5874 5872 5869 5862 5860 5855 5853 5847 5842 5841 5845 5840 5835 5828 5819 5816 5809 5804 5800 5797 5792 5786 5781 5777 5776 5781 5778 5777 5769 5764 5761 5758 5754 5755 5755 5759 5761 5761 5760 5758 5755 5752 5752
5878 5873 5871 5881 5885 5877 5884 5871 5886 5874 5864 5865 5859 5855 5849 5848 5845 5839 5832 5831 5827 5817 5811 5805 5800 5795 5791 5792 5788 5786 5779 5778 5780 5781 5776 5772 5769 5768 5764 5759 5761 5767 5764 5762 5759 5761 5757 5756 5756
5873 5874 5878 5864 5879 5893 5880 5834 5840 5869 5873 5873 5871 5868 5861 5851 5846 5831 5822 5823 5824 5826 5815 5807 5800 5793 5791 5794 5788 5782 5781 5777 5773 5776 5778 5774 5772 5771 5771 5769 5769 5770 5769 5769 5764 5760 5756 5755 5760
5863 5896 5879 5867 5865 5845 5861 5837 5827 5800 5859 5868 5871 5868 5864 5857 5847 5829 5816 5807 5817 5831 5818 5808 5801 5795 5792 5788 5784 5780 5782 5775 5775 5770 5774 5773 5773 5772 5770 5769 5769 5769 5767 5765 5763 5762 5757 5756 5758
5869 5889 5870 5866 5859 5870 5883 5855 5854 5878 5857 5865 5872 5874 5871 5862 5852 5837 5815 5804 5816 5810 5811 5807 5796 5790 5787 5787 5780 5775 5775 5773 5775 5773 5773 5773 5771 5772 5771 5770 5770 5769 5766 5765 5762 5760 5759 5761 5757
5890 5872 5867 5864 5862 5842 5857 5839 5838 5836 5868 5878 5880 5878 5876 5868 5853 5843 5825 5806 5813 5816 5811 5801 5792 5776 5778 5777 5770 5756 5759 5769 5768 5772 5773 5774 5774 5771 5763 5761 5761 5762 5763 5762 5762 5760 5757 5756 5754
5873 5856 5825 5825 5836 5825 5844 5810 5866 5878 5884 5882 5880 5880 5878 5873 5855 5840 5825 5814 5812 5809 5807 5799 5789 5778 5777 5773 5770 5765 5760 5760 5761 5769 5767 5763 5762 5759 5756 5753 5754 5756 5755 5755 5755 5754 5752 5751 5748
5863 5857 5834 5808 5830 5802 5793 5784 5866 5890 5893 5887 5884 5886 5881 5874 5861 5846 5827 5822 5816 5810 5805 5798 5789 5780 5778 5775 5771 5767 5763 5766 5766 5762 5763 5761 5759 5758 5750 5747 5749 5749 5747 5747 5747 5749 5747 5745 5744
5864 5845 5874 5855 5876 5848 5822 5839 5857 5883 5882 5875 5875 5875 5872 5868 5858 5843 5833 5824 5817 5807 5801 5797 5790 5783 5780 5777 5773 5768 5764 5762 5761 5759 5762 5758 5752 5751 5744 5741 5740 5738 5737 5736 5735 5741 5739 5736 5737
5863 5888 5847 5855 5821 5820 5830 5864 5867 5865 5868 5867 5866 5866 5864 5861 5853 5844 5835 5823 5817 5812 5802 5795 5788 5780 5779 5775 5770 5766 5761 5760 5757 5753 5749 5745 5743 5740 5736 5732 5731 5731 5731 5729 5727 5729 5732 5728 5728
5848 5845 5856 5869 5866 5837 5839 5854 5845 5786 5847 5866 5864 5862 5857 5853 5847 5841 5834 5822 5816 5812 5798 5788 5781 5775 5773 5770 5764 5761 5758 5753 5749 5744 5740 5738 5735 5731 5727 5725 5725 5723 5722 5717 5714 5713 5718 5715 5716
5869 5857 5855 5839 5836 5868 5866 5832 5871 5853 5870 5875 5870 5859 5855 5850 5846 5839 5830 5818 5810 5804 5792 5785 5781 5776 5772 5764 5759 5754 5750 5747 5743 5738 5734 5731 5728 5725 5721 5716 5713 5707 5705 5702 5703 5702 5704 5703 5707